Погода в Злихе

Погода в Злихе : погода сейчас, прогноз погоды и архив. Всё, что Вы хотите узнать о погоде в Злихе!

Поиск расширенной информации на нашем сайте:

Другие новости

Новости СМИ2

Главная страница сайта

Новости сайта

02.10.2013

Напоминаем, что на нашем новом сайте вы можете получить высокодетализированные прогнозы погоды по пунктам России, СНГ и мира (включающие важные для авиации метеовеличины, такие как направление и скорость ветра, видимость, явления погоды, количество и форма облачности, нижняя и верхняя граница облачности), а также ознакомиться с разнообразными материалами по авиационной метеорологии и подборкой полезных ссылок на эту тему.

Сайт Метеоцентр.Азия посвящён разработке технологий оптимизации авиаметеорологического обслуживания, включая проектирование и перспективное создание нескольких автоматизированных авиаметеорологических систем:
- система выпуска высокодетальных прогностических карт явлений погоды для нижнего воздушного пространства по России и ближнему зарубежью;
- система верификации прогнозов TAF (выпускаемых синоптиками официальных АМСГ РФ и ближнего зарубежья) и AUTOTAF (выпускаемых сайтом Метеоцентр.Азия) - выявление ошибок, онлайн-сопоставление с фактической погодой METAR, автоматическое внесение коррективов в прогнозы при резком отклонении фактической погоды от прогноза, подсчёт оправдываемости прогнозов по элементам и в целом;
- система обработки, анализа и отображения авиаметеорологической информации для применения провайдерами метеорологической информации.

Рекомендуем: Новостной блог

Погода в Злихе - сегодня

Время (UTC), дата Ветер
(°,м/с) 
Видим.   Явления Облачность Т
(°С)
Тd
(°С)
f(%) Тe
(°С)
Pmin
(гПа)
dP
(гПа)
Po
(мм)
O2
(г/м3)
Тmin Tmax R s Состояние
почвы
00 24.03.17 230 (ЮЗ) н/о    10/10 600 м 
[Sc]
+4.2 +1.5 83 +2  1022.6  754  299           
03 24.03.17 290 (З) 20000 м    10/10 600 м 
[Sc]
+3.5 +0.9 83 +4  1023.4  0.8  755  300           
06 24.03.17 тихо ()   20000 м    10/10 600 м 
[Sc]
+4.2 +0.5 77 +4  1023.4  755  299  +3.5         
09 24.03.17 270 (З) 20000 м  слаб. дождь  10/10 600 м 
[Sc]
+3.8 +1.8 87 +5  1022.8  -0.6  754  299           
12 24.03.17 270 (З) 20000 м  {дождь}  10/10 600 м 
[Sc]
+3.6 +1.8 88 +2  1023.1  0.3  754  300           
15 24.03.17 290 (З) н/о    10/10 600 м 
[Sc]
+3.4 +1.3 86 +2  1023.7  0.6  755  300    +5.5     
18 24.03.17 тихо ()   н/о  дымка  10/10 600 м 
[Sc]
+3 +0.9 86 +3  1025.2  1.4  756  301    +5.5     
21 24.03.17 тихо ()   н/о  дымка  10/10 600 м 
[Sc]
+1 -0.7 88 +1  1025.1  -0.2  756  303           
00 25.03.17 тихо ()   н/о  дымка  10/10 600 м 
[Sc]
+1.4 -0.5 87 +1  1024.7  -0.3  756  303           
03 25.03.17 тихо ()   0050 м  туман  ?/?  
+1.8 +0.5 91 +2  1025.7  1.1  756  303           
06 25.03.17 360 (С) 4000 м  дымка{туман}  10/10 600 м 
[St]
+2.2 +0.6 89 +2  1025.7  -0.2  756  302  +0.6         
09 25.03.17 020 (С) 10 км  дымка  10/10 600 м 
[St]
+4.4 +2.2 86 +4  1023.5  -2  755  299           
12 25.03.17 050 (СВ) 20000 м    10/10 600 м 
[Sc]
+5 +3 87 +4  1022.1  -1.3  754  298           
15 25.03.17 050 (СВ) н/о  слаб. дождь  10/10 600 м 
[Sc]
+3.8 +2.3 90 +3  1022  -0.2  754  299    +5.6  0.0     
18 25.03.17 050 (СВ) н/о  слаб. дождь  10/10 300 м 
[Ns]
+3 +1.7 91 +2  1021.1  -0.9  753  300    +5.6  0.0     
21 25.03.17 050 (СВ) н/о  слаб. дождь  10/10 300 м 
[Ns]
+2.6 +1.5 92 +3  1020.6  -0.5  753  300           
00 26.03.17 270 (З) н/о  слаб. дождь  10/10 300 м 
[Ns]
+2.2 +1.4 94 +2  1020.9  0.2  753  301           
03 26.03.17 230 (ЮЗ) 20000 м  {дождь}  10/10 300 м 
[Ns]
+2.4 +1.1 91 -1  1023  2.2  754  301         
06 26.03.17 250 (З) 20000 м    10/10 600 м 
[Cu Sc]
+4.8 +1.2 77 +2  1024.2  1.3  755  299  +2       
09 26.03.17 270 (З) 20000 м    9/9 600 м 
[Cu Sc]
+6.7 +0.3 64 +4  1024.7  0.6  756  297           
12 26.03.17 270 (З) 20000 м    9/9 600 м кучево-дожд. 
[Cb cap]
+8.8 +0.2 55 +7  1024.5  -0.1  756  295           
15 26.03.17 290 (З) н/о    3/3 1000 м 
[Cu hum]
+5.4 +2.5 82 +6  1025.3  0.5  756  298    +10.5       
18 26.03.17 тихо ()   н/о    ясно 
+1.4 -0.3 88 +1  1026.7  1.2  757  303    +10.5       
21 26.03.17 тихо ()   н/о    ясно 
+0.8 -0.6 90 +1  1027.2  0.5  757  304           
00 27.03.17 тихо ()   н/о    ясно 
-2.8 -4.1 91 -3  1025.8  -1.7  756  308           
Время (UTC), дата Ветер
(°,м/с) 
Видим.   Явления Облачность Т
(°С)
Тd
(°С)
f(%) Тe
(°С)
Pmin
(гПа)
dP
(гПа)
Po
(мм)
O2
(г/м3)
Тmin Tmax R s Состояние
почвы

Для получения пояснительной информации подведите курсор к названию столбца.

ПОГОДА в Злихе - архив

Всё, что Вы хотите узнать о погоде в Злихе - удобно и подробно!

Выберите нужную дату (начиная с 1 января 2015* года) и нажмите кнопку "Найти".
Будут отображены архивные сводки погоды по пункту Злиха, начиная с указанной даты.


Отображать данные в формате CSV (для использования в таблицах Excel)


Внимание! Наш архив погоды предназначен исключительно для личного некоммерческого использования в познавательных целях. Если Вам необходимы официальные справки о состоянии погоды (для производственных, юридических, коммерческих и т.п. целей), обращайтесь в органы Росгидромета.

*Примечание: данная дата относится к архиву по метеостанциям СССР (Россия, СНГ, Балтия).
Архив по метеостанциям Зарубежной Европы и Азии (кроме Китая) хранится 10 дней, по другим регионам земного шара (Китай, Африка, Америка, Австралия, Океания) - 1 день.

Злиха - район местоположения метеостанции


Название, широта, долгота, высота метеостанции:
Злиха 45.2°ш. 67.1°д. 138 м над ур. моря [Казахстан]

Дополнительная информация

В oтличие oт бoльшинства пoгoдных сайтoв мы публикуем пoдрoбную метеoинфoрмацию в детальнoм прoфессиoнальнoм фoрмате.

Характеристики температуры и влажнoсти вoздуха измеряются на высoте 2 м в тени вдали oт зданий и деревьев.
Скoрoсть ветра измеряется на высoте 10 м (на урoвне рoста челoвека скoрoсть ветра ниже в 1.5-2 раза). Если метеoстанция нахoдится в гoрoде или в лесу, тo скoрoсть ветра занижена на 2-4 м/с пo сравнению с oткрытым местoм. Скoрoсть ветра над акватoриями крупных рек и oзёр, а также на вершинах хoлмoв на 2-5 м/с выше, чем в oбычных услoвиях.
Атмoсфернoе давление в разных тoчках местнoсти мoжет значительнo oтличаться oт давления на метеoстанции, в зависимoсти oт услoвий рельефа (при пoдъёме на 10 м давление пoнижается примернo на 1 мм рт.ст.).